{"data":{"norad_id":65068,"epoch":"2026-05-25T03:40:32.138400Z","epoch_age_seconds":55634,"freshness":"FRESH","line1":"1 65068U 25165N   26145.15314975  .00006264  00000+0  43771-3 0  9999","line2":"2 65068  97.4483 222.1937 0002159 143.5310 216.6065 15.05658384 46294","mean_motion":15.05658384,"eccentricity":0.0002159,"inclination_deg":97.4483,"raan_deg":222.1937,"arg_perigee_deg":143.531,"mean_anomaly_deg":216.6065,"bstar":0.00043771,"rev_number":4629,"period_min":95.639224362065,"perigee_km":547.98976338548,"apogee_km":550.98111075381,"semimajor_km":6927.6224370696,"source":"CELESTRAK","updated_at":"2026-05-25T13:38:20.678855Z"}}